Etusivu
METAR-TAF:

METAR-TAF

Lentoasemat :

Uppsala, Ruotsi

Leveyspiiri: 59-53N, Pituuspiiri: 017-36E, korkeus merenpinnasta: 21 m

METAR: puuttuu

Aika: 14:36 (12:36 UTC)

Sääennuste

Tämä raportti tehtiin 1 tunti ja 11 minuuttia sitten, kello 11.25 UTC
Ennuste voimassa 19. päivästä klo 12 UTC - 19. päivään klo 20 UTC
Tuuli 3 kn eri suunnista
Näkyvyys 10 km tai enemmän
ei pilviä alle 1500 m:ssä eikä cumulonimbus-pilviä

TAF: ESCM 191125Z 1912/1920 VRB03KT CAVOK RMK MIL

Säähavainnot ja -ennusteet yli 4000 lentoasemalta (METAR- ja TAF-raportit).

Käytössä olevat sääasemat on merkitty karttaan keltaisilla ja punaisilla pisteillä.

Aseta hiiri pisteen päälle nähdäksesi sääaseman nimen.

Klikkaa sitten nähdäksesi säähavainnot ja -ennusteet.

Kartan vaihtaminen: klikkaa mustalla rastilla varustettuja vihreitä pisteitä, niin voit zoomata sisään; viivalla varustettua vihreää pistettä, niin voit zoomata ulos tai vihreitä nuolia, niin pääset viereisille kartoille.


METAR-TAF: